DW3766 Weather Reports


Display with metric or nautical units.
time (UTC)temp
F
wind
direction
speed
MPH
gust
MPH
rain 1hr
in
rain 24hr
in
rain mn
in
humidity
%
barometer
mb
20260903180622 94 196 5.0 12.0 0.00 0.00 0.00 1012.8
20260903180151 94 196 6.0 13.0 0.00 0.00 0.00 1012.9
20260903175143 94 210 6.0 12.0 0.00 0.00 0.00 1013.0
20260903174649 94 146 7.0 14.0 0.00 0.00 0.00 1013.1
20260903174204 94 154 8.0 14.0 0.00 0.00 0.00 1013.1
20260903173632 93 194 5.0 10.0 0.00 0.00 0.00 1013.2
20260903173151 93 168 6.0 13.0 0.00 0.00 0.00 1013.2
20260903172623 93 173 8.0 13.0 0.00 0.00 0.00 1013.3
20260903172159 93 154 8.0 13.0 0.00 0.00 0.00 1013.4
20260903171623 93 157 6.0 12.0 0.00 0.00 0.00 1013.4
20260903171131 92 209 6.0 12.0 0.00 0.00 0.00 1013.4
20260903170635 91 170 4.0 14.0 0.00 0.00 0.00 1013.5
20260903170209 91 181 8.0 14.0 0.00 0.00 0.00 1013.7
20260903165638 91 171 7.0 12.0 0.00 0.00 0.00 1013.7
20260903165153 90 163 4.0 10.0 0.00 0.00 0.00 1013.7
20260903164620 90 173 7.0 12.0 0.00 0.00 0.00 1013.7
20260903164156 90 204 5.0 12.0 0.00 0.00 0.00 1013.8
20260903163627 90 167 7.0 12.0 0.00 0.00 0.00 1013.9
20260903163204 89 185 6.0 12.0 0.00 0.00 0.00 1013.9
20260903162712 89 190 6.0 12.0 0.00 0.00 0.00 1013.9
20260903162147 89 158 7.0 10.0 0.00 0.00 0.00 1013.9
20260903161616 89 155 7.0 11.0 0.00 0.00 0.00 1013.9
20260903161155 89 220 6.0 11.0 0.00 0.00 0.00 1013.9
20260903160622 89 173 5.0 13.0 0.00 0.00 0.00 1013.8
20260903160131 89 190 7.0 13.0 0.00 0.00 0.00 1013.8
20260903155640 89 206 5.0 8.0 0.00 0.00 0.00 1013.8
20260903155121 88 195 4.0 11.0 0.00 0.00 0.00 1013.8
20260903154649 88 184 6.0 11.0 0.00 0.00 0.00 1013.9
20260903154125 88 180 6.0 13.0 0.00 0.00 0.00 1013.9
20260903153655 88 197 6.0 13.0 0.00 0.00 0.00 1013.9
20260903153207 88 181 5.0 13.0 0.00 0.00 0.00 1013.9
20260903152616 87 171 5.0 10.0 0.00 0.00 0.00 1013.8
20260903152152 87 213 5.0 11.0 0.00 0.00 0.00 1013.8
20260903151621 86 200 5.0 11.0 0.00 0.00 0.00 1013.8
20260903151150 85 208 6.0 12.0 0.00 0.00 0.00 1013.8
20260903150631 85 199 9.0 12.0 0.00 0.00 0.00 1013.8
20260903150200 85 171 6.0 15.0 0.00 0.00 0.00 1013.9
20260903145636 84 223 10.0 15.0 0.00 0.00 0.00 1014.0
20260903145203 84 205 8.0 13.0 0.00 0.00 0.00 1014.0
20260903144640 84 175 7.0 12.0 0.00 0.00 0.00 1014.0
20260903144206 84 166 5.0 12.0 0.00 0.00 0.00 1013.9
20260903143643 84 177 9.0 13.0 0.00 0.00 0.00 1014.0
20260903143212 83 190 8.0 15.0 0.00 0.00 0.00 1014.0
20260903142718 83 215 8.0 15.0 0.00 0.00 0.00 1014.0
20260903142113 83 194 8.0 12.0 0.00 0.00 0.00 1014.1
20260903141641 83 190 6.0 11.0 0.00 0.00 0.00 1014.1
20260903141215 82 171 6.0 14.0 0.00 0.00 0.00 1014.2
20260903140625 82 220 9.0 14.0 0.00 0.00 0.00 1014.2
20260903140202 81 169 6.0 10.0 0.00 0.00 0.00 1014.2
20260903135630 81 165 4.0 11.0 0.00 0.00 0.00 1014.2
20260903135200 81 215 7.0 11.0 0.00 0.00 0.00 1014.2
20260903134628 80 216 5.0 9.0 0.00 0.00 0.00 1014.3
20260903134204 80 211 6.0 13.0 0.00 0.00 0.00 1014.3
20260903133632 80 213 5.0 13.0 0.00 0.00 0.00 1014.3
20260903133119 80 137 4.0 9.0 0.00 0.00 0.00 1014.4
20260903132656 80 198 4.0 12.0 0.00 0.00 0.00 1014.3
20260903132129 80 166 5.0 12.0 0.00 0.00 0.00 1014.3
20260903131704 79 207 4.0 8.0 0.00 0.00 0.00 1014.4
20260903131132 79 193 4.0 8.0 0.00 0.00 0.00 1014.3
20260903130701 79 206 5.0 7.0 0.00 0.00 0.00 1014.3
20260903130138 79 192 5.0 7.0 0.00 0.00 0.00 1014.2
20260903125643 79 203 4.0 7.0 0.00 0.00 0.00 1014.2
20260903125129 79 187 2.0 7.0 0.00 0.00 0.00 1014.1
20260903124706 79 212 5.0 7.0 0.00 0.00 0.00 1014.1
20260903124135 79 200 2.0 6.0 0.00 0.00 0.00 1014.1
20260903123616 79 160 3.0 6.0 0.00 0.00 0.00 1014.1
20260903123145 79 197 2.0 5.0 0.00 0.00 0.00 1014.0
20260903122722 79 244 2.0 6.0 0.00 0.00 0.00 1013.9
20260903122130 79 199 3.0 5.0 0.00 0.00 0.00 1013.8
20260903121646 79 150 2.0 4.0 0.00 0.00 0.00 1013.8
20260903121114 79 183 2.0 4.0 0.00 0.00 0.00 1013.8
20260903120650 79 188 1.0 4.0 0.00 0.00 0.00 1013.7
20260903120159 79 190 1.0 5.0 0.00 0.00 0.00 1013.8
20260903115629 79 222 2.0 6.0 0.00 0.00 0.00 1013.8
20260903115146 79 159 2.0 6.0 0.00 0.00 0.00 1013.8
20260903114653 79 189 1.0 5.0 0.00 0.00 0.00 1013.7
20260903114134 79 194 2.0 5.0 0.00 0.00 0.00 1013.7
20260903113703 79 210 3.0 7.0 0.00 0.00 0.00 1013.6
20260903113131 79 190 2.0 8.0 0.00 0.00 0.00 1013.6
20260903112708 79 179 4.0 8.0 0.00 0.00 0.00 1013.6
20260903112138 79 185 3.0 9.0 0.00 0.00 0.00 1013.5
20260903111652 79 197 5.0 9.0 0.00 0.00 0.00 1013.5
20260903111221 79 170 5.0 9.0 0.00 0.00 0.00 1013.5
20260903110637 79 207 3.0 7.0 0.00 0.00 0.00 1013.4
20260903110147 79 191 1.0 7.0 0.00 0.00 0.00 1013.3
20260903105714 79 201 5.0 8.0 0.00 0.00 0.00 1013.4
20260903105133 79 207 3.0 10.0 0.00 0.00 0.00 1013.3
20260903104703 79 171 4.0 10.0 0.00 0.00 0.00 1013.2
20260903104140 79 200 4.0 8.0 0.00 0.00 0.00 1013.2
20260903103658 79 208 2.0 6.0 0.00 0.00 0.00 1013.3
20260903103212 79 188 3.0 8.0 0.00 0.00 0.00 1013.3
20260903102642 79 187 3.0 8.0 0.00 0.00 0.00 1013.3
20260903102143 79 155 2.0 8.0 0.00 0.00 0.00 1013.2
20260903101614 79 169 4.0 8.0 0.00 0.00 0.00 1013.2
20260903101143 79 173 5.0 7.0 0.00 0.00 0.00 1013.2
20260903100623 79 161 3.0 8.0 0.00 0.00 0.00 1013.3
20260903100151 79 180 4.0 8.0 0.00 0.00 0.00 1013.3
20260903095620 79 169 3.0 8.0 0.00 0.00 0.00 1013.3
20260903095154 79 178 3.0 8.0 0.00 0.00 0.00 1013.3
20260903094722 79 143 4.0 8.0 0.00 0.00 0.00 1013.3
20260903094137 79 171 3.0 7.0 0.00 0.00 0.00 1013.4
20260903093647 79 134 4.0 7.0 0.00 0.00 0.00 1013.3
20260903093155 79 162 4.0 11.0 0.00 0.00 0.00 1013.3
20260903092631 79 188 6.0 11.0 0.00 0.00 0.00 1013.4
20260903092159 79 168 4.0 6.0 0.00 0.00 0.00 1013.4
20260903091619 79 154 1.0 5.0 0.00 0.00 0.00 1013.4
20260903091149 79 116 2.0 2.0 0.00 0.00 0.00 1013.5
20260903090626 79 116 1.0 4.0 0.00 0.00 0.00 1013.5
20260903090135 79 115 2.0 3.0 0.00 0.00 0.00 1013.5
20260903085617 79 109 1.0 2.0 0.00 0.00 0.00 1013.5
20260903085153 79 161 0.0 2.0 0.00 0.00 0.00 1013.4
20260903084623 79 161 1.0 5.0 0.00 0.00 0.00 1013.4
20260903084159 79 161 2.0 7.0 0.00 0.00 0.00 1013.4
20260903083631 79 130 3.0 7.0 0.00 0.00 0.00 1013.4
20260903083205 79 137 2.0 3.0 0.00 0.00 0.00 1013.4
20260903082635 80 117 1.0 5.0 0.00 0.00 0.00 1013.5
20260903082210 80 117 2.0 5.0 0.00 0.00 0.00 1013.5
20260903081619 80 126 2.0 5.0 0.00 0.00 0.00 1013.5
20260903081126 80 101 2.0 6.0 0.00 0.00 0.00 1013.5
20260903080702 80 123 4.0 7.0 0.00 0.00 0.00 1013.5
20260903080132 80 123 4.0 7.0 0.00 0.00 0.00 1013.5
20260903075145 80 155 4.0 6.0 0.00 0.00 0.00 1013.5
20260903074619 80 129 3.0 7.0 0.00 0.00 0.00 1013.5
20260903074153 80 142 3.0 7.0 0.00 0.00 0.00 1013.5
20260903073702 81 142 3.0 5.0 0.00 0.00 0.00 1013.5
20260903073136 81 144 2.0 5.0 0.00 0.00 0.00 1013.5
20260903072646 81 144 2.0 7.0 0.00 0.00 0.00 1013.5
20260903072114 81 117 2.0 7.0 0.00 0.00 0.00 1013.6
20260903071650 81 98 2.0 8.0 0.00 0.00 0.00 1013.6
20260903071118 81 134 4.0 8.0 0.00 0.00 0.00 1013.5
20260903070655 81 163 4.0 8.0 0.00 0.00 0.00 1013.5
20260903070129 81 162 5.0 9.0 0.00 0.00 0.00 1013.5
20260903065623 81 117 4.0 9.0 0.00 0.00 0.00 1013.6
20260903065119 81 155 5.0 8.0 0.00 0.00 0.00 1013.7
20260903064653 82 105 4.0 7.0 0.00 0.00 0.00 1013.8
20260903064200 82 119 4.0 7.0 0.00 0.00 0.00 1013.9
20260903063621 82 65 5.0 7.0 0.00 0.00 0.00 1013.8
20260903063120 83 115 2.0 5.0 0.00 0.00 0.00 1013.7
20260903062626 83 138 2.0 5.0 0.00 0.00 0.00 1013.7
20260903062123 83 134 3.0 6.0 0.00 0.00 0.00 1013.7
20260903061623 83 111 3.0 6.0 0.00 0.00 0.00 1013.7
20260903061127 83 83 4.0 6.0 0.00 0.00 0.00 1013.7
20260903060647 83 74 2.0 6.0 0.00 0.00 0.00 1013.7
20260903060114 83 104 3.0 6.0 0.00 0.00 0.00 1013.6
20260903055639 83 154 3.0 7.0 0.00 0.00 0.00 1013.7
20260903055145 84 115 3.0 7.0 0.00 0.00 0.00 1013.8
20260903054652 84 131 2.0 7.0 0.00 0.00 0.00 1013.8
20260903054136 84 136 3.0 7.0 0.00 0.00 0.00 1013.8
20260903053616 84 128 2.0 6.0 0.00 0.00 0.00 1013.7
20260903053124 84 109 4.0 7.0 0.00 0.00 0.00 1013.8
20260903052625 84 84 4.0 8.0 0.00 0.00 0.00 1013.7
20260903052133 85 96 5.0 9.0 0.00 0.00 0.00 1013.6
20260903051615 85 70 3.0 9.0 0.00 0.00 0.00 1013.5
20260903051116 85 98 4.0 9.0 0.00 0.00 0.00 1013.4
20260903050644 85 111 5.0 9.0 0.00 0.00 0.00 1013.3
20260903050127 85 120 5.0 12.0 0.00 0.00 0.00 1013.2
20260903045709 85 163 5.0 13.0 0.00 0.00 0.00 1013.0
20260903045135 85 159 9.0 13.0 0.00 0.00 0.00 1013.0
20260903044644 85 155 7.0 11.0 0.00 0.00 0.00 1013.0
20260903044215 85 143 7.0 11.0 0.00 0.00 0.00 1013.0
20260903043703 85 134 2.0 6.0 0.00 0.00 0.00 1012.9
20260903043132 85 123 3.0 7.0 0.00 0.00 0.00 1012.9
20260903042649 85 154 2.0 10.0 0.00 0.00 0.00 1012.9
20260903042121 85 133 4.0 6.0 0.00 0.00 0.00 1012.9
20260903041658 85 128 1.0 5.0 0.00 0.00 0.00 1012.9
20260903041126 85 121 1.0 5.0 0.00 0.00 0.00 1012.9
20260903040702 84 120 2.0 3.0 0.00 0.00 0.00 1012.9
20260903040130 84 139 2.0 5.0 0.00 0.00 0.00 1012.9
20260903035700 84 153 2.0 5.0 0.00 0.00 0.00 1012.8
20260903035136 83 126 1.0 7.0 0.00 0.00 0.00 1012.8
20260903034705 83 138 3.0 7.0 0.00 0.00 0.00 1012.8
20260903034145 82 144 3.0 6.0 0.00 0.00 0.00 1012.7
20260903033649 82 128 3.0 6.0 0.00 0.00 0.00 1012.6
20260903033115 82 107 5.0 6.0 0.00 0.00 0.00 1012.7
20260903032615 83 142 2.0 4.0 0.00 0.00 0.00 1012.5
20260903032149 83 142 0.0 0.0 0.00 0.00 0.00 1012.3
20260903031618 83 142 0.0 0.0 0.00 0.00 0.00 1012.2
20260903031154 84 142 0.0 0.0 0.00 0.00 0.00 1012.2
20260903030719 84 142 0.0 0.0 0.00 0.00 0.00 1012.1
20260903030135 84 142 0.0 0.0 0.00 0.00 0.00 1012.1
20260903025705 85 142 0.0 0.0 0.00 0.00 0.00 1012.0
20260903025134 85 142 0.0 0.0 0.00 0.00 0.00 1011.9
20260903024710 85 142 0.0 0.0 0.00 0.00 0.00 1011.9
20260903024122 86 142 0.0 0.0 0.00 0.00 0.00 1011.8
20260903023656 86 142 0.0 0.0 0.00 0.00 0.00 1011.6
20260903023204 86 142 0.0 0.0 0.00 0.00 0.00 1011.6
20260903022641 87 142 0.0 0.0 0.00 0.00 0.00 1011.5
20260903022207 87 142 0.0 0.0 0.00 0.00 0.00 1011.5
20260903021644 88 142 0.0 0.0 0.00 0.00 0.00 1011.3
20260903021113 88 142 0.0 0.0 0.00 0.00 0.00 1011.3
20260903020131 89 142 0.0 0.0 0.00 0.00 0.00 1011.2
20260903015707 90 142 0.0 0.0 0.00 0.00 0.00 1011.1
20260903015137 90 142 0.0 0.0 0.00 0.00 0.00 1011.1
20260903014646 91 142 0.0 0.0 0.00 0.00 0.00 1011.1
20260903014115 91 142 0.0 0.0 0.00 0.00 0.00 1011.1
20260903013652 92 142 0.0 0.0 0.00 0.00 0.00 1011.1
20260903013200 92 142 0.0 0.0 0.00 0.00 0.00 1011.0
20260903012637 93 142 0.0 0.0 0.00 0.00 0.00 1011.0
20260903012146 94 142 0.0 0.0 0.00 0.00 0.00 1011.0
20260903011619 94 142 0.0 0.0 0.00 0.00 0.00 1010.9
20260903011154 94 142 0.0 0.0 0.00 0.00 0.00 1010.8
20260903010700 95 142 0.0 1.0 0.00 0.00 0.00 1010.8
20260903010202 95 142 0.0 2.0 0.00 0.00 0.00 1010.8
20260903005710 95 142 1.0 2.0 0.00 0.00 0.00 1010.8
20260903005125 96 142 2.0 5.0 0.00 0.00 0.00 1010.9
20260903004655 96 146 2.0 5.0 0.00 0.00 0.00 1010.8
20260903004124 96 125 2.0 5.0 0.00 0.00 0.00 1010.8
20260903003700 97 131 2.0 5.0 0.00 0.00 0.00 1010.8
20260903003228 97 112 3.0 6.0 0.00 0.00 0.00 1010.8
20260903002641 97 171 2.0 7.0 0.00 0.00 0.00 1010.9
20260903002206 97 150 3.0 7.0 0.00 0.00 0.00 1010.8
20260903001641 98 153 3.0 7.0 0.00 0.00 0.00 1010.8
20260903001205 98 165 3.0 8.0 0.00 0.00 0.00 1010.8
20260903000639 98 164 5.0 8.0 0.00 0.00 0.00 1010.8
20260903000147 98 138 4.0 8.0 0.00 0.00 0.00 1010.8
20260902235616 98 175 4.0 9.0 0.00 0.00 0.00 1010.9
20260902235118 98 158 5.0 9.0 0.00 0.00 0.00 1010.8
20260902234648 98 153 5.0 9.0 0.00 0.00 0.00 1010.9
20260902234115 99 124 4.0 9.0 0.00 0.00 0.00 1010.9
20260902233629 99 177 6.0 10.0 0.00 0.00 0.00 1010.9
20260902233156 99 108 6.0 9.0 0.00 0.00 0.00 1011.0
20260902232614 99 167 4.0 9.0 0.00 0.00 0.00 1011.0
20260902232141 99 148 5.0 11.0 0.00 0.00 0.00 1011.0
20260902231713 99 150 6.0 12.0 0.00 0.00 0.00 1011.0
20260902231118 99 157 6.0 12.0 0.00 0.00 0.00 1010.9
20260902230626 99 202 7.0 12.0 0.00 0.00 0.00 1010.9
20260902230137 99 149 5.0 10.0 0.00 0.00 0.00 1011.0
20260902225646 99 165 5.0 11.0 0.00 0.00 0.00 1010.9
20260902225113 99 136 7.0 11.0 0.00 0.00 0.00 1011.0
20260902224649 99 151 7.0 11.0 0.00 0.00 0.00 1010.9
20260902224122 99 102 4.0 11.0 0.00 0.00 0.00 1010.9
20260902223657 99 34 6.0 12.0 0.00 0.00 0.00 1010.8
20260902223127 100 154 7.0 12.0 0.00 0.00 0.00 1011.0
20260902222659 100 116 7.0 11.0 0.00 0.00 0.00 1010.9
20260902222125 100 113 5.0 14.0 0.00 0.00 0.00 1011.0
20260902221659 100 159 6.0 14.0 0.00 0.00 0.00 1011.0
20260902221129 100 188 5.0 11.0 0.00 0.00 0.00 1011.0
20260902220657 99 160 6.0 11.0 0.00 0.00 0.00 1011.1
20260902220132 99 129 5.0 12.0 0.00 0.00 0.00 1011.1
20260902215640 99 124 7.0 11.0 0.00 0.00 0.00 1011.1
20260902215153 99 175 4.0 10.0 0.00 0.00 0.00 1011.1
20260902214624 99 153 6.0 12.0 0.00 0.00 0.00 1011.2
20260902214140 99 126 7.0 12.0 0.00 0.00 0.00 1011.2
20260902213709 99 116 5.0 13.0 0.00 0.00 0.00 1011.2
20260902213217 99 153 7.0 13.0 0.00 0.00 0.00 1011.3
20260902212619 99 120 4.0 11.0 0.00 0.00 0.00 1011.3
20260902212158 99 114 7.0 11.0 0.00 0.00 0.00 1011.3
20260902211704 99 105 5.0 10.0 0.00 0.00 0.00 1011.3
20260902211130 100 66 3.0 12.0 0.00 0.00 0.00 1011.4
20260902210137 99 127 5.0 9.0 0.00 0.00 0.00 1011.7
20260902205704 100 148 4.0 12.0 0.00 0.00 0.00 1011.7
20260902205123 100 193 6.0 12.0 0.00 0.00 0.00 1011.8
20260902204645 99 186 7.0 13.0 0.00 0.00 0.00 1011.9
20260902204153 99 115 3.0 13.0 0.00 0.00 0.00 1011.9
20260902203702 99 182 4.0 12.0 0.00 0.00 0.00 1011.9
20260902203136 99 149 6.0 11.0 0.00 0.00 0.00 1012.0
20260902202645 99 145 5.0 11.0 0.00 0.00 0.00 1012.1
20260902202130 98 133 3.0 11.0 0.00 0.00 0.00 1012.2
20260902201708 98 146 6.0 10.0 0.00 0.00 0.00 1012.2
20260902201130 98 98 6.0 10.0 0.00 0.00 0.00 1012.4
20260902200659 98 142 4.0 13.0 0.00 0.00 0.00 1012.5
20260902200112 98 84 6.0 11.0 0.00 0.00 0.00 1012.6
20260902195638 98 118 4.0 10.0 0.00 0.00 0.00 1012.7
20260902195118 98 42 3.0 12.0 0.00 0.00 0.00 1012.9
20260902194646 98 136 6.0 14.0 0.00 0.00 0.00 1012.9
20260902194121 97 119 6.0 14.0 0.00 0.00 0.00 1013.0
20260902193650 97 169 7.0 13.0 0.00 0.00 0.00 1013.0
20260902193226 96 159 3.0 13.0 0.00 0.00 0.00 1013.1
20260902192634 95 236 6.0 10.0 0.00 0.00 0.00 1013.2
20260902192202 96 161 3.0 7.0 0.00 0.00 0.00 1013.3
20260902191639 96 90 2.0 10.0 0.00 0.00 0.00 1013.4
20260902191206 96 107 4.0 10.0 0.00 0.00 0.00 1013.4
20260902190647 97 67 5.0 7.0 0.00 0.00 0.00 1013.5
20260902190115 98 135 4.0 11.0 0.00 0.00 0.00 1013.6
20260902185651 97 157 5.0 11.0 0.00 0.00 0.00 1013.7
20260902185119 97 277 3.0 9.0 0.00 0.00 0.00 1013.7
20260902184656 96 177 3.0 9.0 0.00 0.00 0.00 1013.8
20260902184125 95 155 5.0 9.0 0.00 0.00 0.00 1013.9
20260902183703 95 110 5.0 8.0 0.00 0.00 0.00 1014.0
20260902183133 95 44 3.0 6.0 0.00 0.00 0.00 1014.2
20260902182701 95 115 4.0 6.0 0.00 0.00 0.00 1014.2
20260902182137 95 81 3.0 7.0 0.00 0.00 0.00 1014.3
20260902181706 95 156 4.0 9.0 0.00 0.00 0.00 1014.4
20260902181143 96 112 2.0 7.0 0.00 0.00 0.00 1014.4
20260902180651 96 223 4.0 10.0 0.00 0.00 0.00 1014.6